Home   Weather   41°27'N, 81°44'W   Past weeks
Flag for USA

Past Weather in 41°27'N, 81°44'W, USA — Yesterday and Last 2 Weeks

Now
68 °F

Overcast.


Feels Like: 68 °F
Forecast: 85 / 64 °F
Wind: 6 mph from Northeast

Location: Cleveland-Hopkins International Airport

Current Time: May 24, 2019 at 11:10:38 pm

Latest Report: May 24, 2019 at 9:51 pm


Visibility: 10 mi

Pressure: 30.11 "Hg

Humidity: 53%

Dew Point: 50 °F

Location of 41°27'N, 81°44'WLocation

Past Weather in 41°27'N, 81°44'W — Graph

°F

41°27'N, 81°44'W Temperature Yesterday

Maximum temperature yesterday: 83 °F (at 4:51 pm)
Minimum temperature yesterday: 65 °F (at 1:51 am)
Average temperature yesterday: 73 °F

High & Low Weather Summary for the Past Weeks

 TemperatureHumidityPressure
High85 °F (May 19, 12:51 pm)97% (May 13, 12:01 am)30.25 "Hg (May 13, 12:01 am)
Low41 °F (May 11, 4:51 am)31% (May 15, 5:51 pm)29.70 "Hg (May 13, 4:51 am)
Average60 °F70%29.95 "Hg
* Reported May 9 8:51 pm — May 24 8:51 pm, 41°27'N, 81°44'W. Weather by CustomWeather, © 2019

Note: Actual official high and low records may vary slightly from our data, if they occured in-between our weather recording intervals... More about our weather records

Advertising

41°27'N, 81°44'W Weather History for the Previous 24 Hours

Scroll right to see more
 ConditionsComfort  
Time TempWeatherWind HumidityBarometerVisibility
8:51 pm
Fri, May 24
67 °FOvercast.3 mph55%30.09 "Hg10 mi
7:51 pm67 °FPartly sunny.8 mph53%30.09 "Hg10 mi
6:51 pm67 °FBroken clouds.7 mph55%30.12 "Hg10 mi
5:51 pm66 °FOvercast.7 mph54%30.17 "Hg10 mi
4:51 pm66 °FOvercast.9 mph54%30.18 "Hg10 mi
3:51 pm68 °FOvercast.12 mph53%30.18 "Hg10 mi
2:51 pm71 °FMostly cloudy.8 mph53%30.14 "Hg10 mi
1:51 pm71 °FBroken clouds.No wind45%30.15 "Hg10 mi
12:51 pm68 °FBroken clouds.No wind51%30.15 "Hg10 mi
11:51 am65 °FScattered clouds.6 mph61%30.19 "Hg10 mi
10:51 am68 °FScattered clouds.9 mph55%30.17 "Hg10 mi
9:51 am66 °FScattered clouds.6 mph56%30.16 "Hg10 mi
8:51 am65 °FPassing clouds.6 mph61%30.15 "Hg10 mi
7:51 am61 °FPassing clouds.3 mph72%30.14 "Hg10 mi
6:51 am56 °FPassing clouds.5 mph84%30.14 "Hg10 mi
5:51 am53 °FClear.No wind86%30.11 "Hg10 mi
4:51 am59 °FClear.No wind69%30.09 "Hg10 mi
3:51 am62 °FClear.7 mph62%30.07 "Hg10 mi
2:51 am62 °FClear.8 mph62%30.07 "Hg10 mi
1:51 am63 °FClear.7 mph60%30.07 "Hg10 mi
12:51 am65 °FClear.10 mph54%30.06 "Hg10 mi
11:51 pm
Thu, May 23
66 °FClear.9 mph50%30.05 "Hg10 mi
Weather by CustomWeather, © 2019

See weather overview